Other Public Products
Issued by NWS Grand Forks, ND

Home | Current Version | Previous Version | Text Only | Print | Product List | Glossary Off
Versions: 1 2 3 4 5 6 7 8 9 10 11 12 13 14 15 16 17 18 19 20 21 22 23 24 25 26 27 28 29 30 31 32 33 34 35 36 37 38 39 40 41 42 43 44 45 46 47 48 49 50

701
FPUS83 KFGF 300010
OPUFGF
PRAIRIE TO PINES WEATHER ROUNDUP
NATIONAL WEATHER SERVICE EASTERN NORTH DAKOTA/GRAND FORKS ND
700 PM CDT WED MAR 29 2017

 **SATELLITE DATA USED TO AUGMENT SKY COVER AT AUTOMATED STATIONS**
 *****  WEATHER ACROSS EASTERN NORTH DAKOTA  *****

CITY           SKY/WX    TMP DP  RH WIND       PRES   REMARKS
GRAND FORKS    FAIR      57  43  59 S13       30.01S
6HR MIN TEMP:  54; 6HR MAX TEMP:  62;

GRAND FORKS AF FAIR      57  41  55 S15       30.00S
GRAND CITY NWS NOT AVBL
BUXTON         NOT AVBL
DEVILS LAKE    CLOUDY    55  39  54 S7        29.95F
6HR MIN TEMP:  52; 6HR MAX TEMP:  58;

FARGO          FAIR      57  36  45 S18       30.05R
6HR MIN TEMP:  56; 6HR MAX TEMP:  62;

WAHPETON ARPT  FAIR      52  32  46 SE16      30.08S
$$

 *****  WEATHER ACROSS CENTRAL AND WESTERN NORTH DAKOTA  *****

CITY           SKY/WX    TMP DP  RH WIND       PRES   REMARKS
JAMESTOWN      FAIR      58  32  37 S12       29.97F
6HR MIN TEMP:  58; 6HR MAX TEMP:  63;

BISMARCK       CLOUDY    62  38  40 S14       29.93F
6HR MIN TEMP:  59; 6HR MAX TEMP:  65;

MINOT          PTSUNNY   53  46  77 N3        29.87F
6HR MIN TEMP:  51; 6HR MAX TEMP:  64; 6HR PCP: TRACE;

MINOT AFB      FAIR      51  47  87 E3        29.86F
6HR MIN TEMP:  48; 6HR MAX TEMP:  58; 6HR PCP:  0.05;

GARRISON         N/A     53  39  59 S6        29.87F
6HR MIN TEMP:  52; 6HR MAX TEMP:  61;

WILLISTON      FAIR      61  30  31 W9        29.86F
6HR MIN TEMP:  55; 6HR MAX TEMP:  63;

DICKINSON      FAIR      60  25  26 SW13      29.86F
6HR MIN TEMP:  53; 6HR MAX TEMP:  63;

HETTINGER      CLOUDY    58  34  40 S12       29.91F
6HR MIN TEMP:  53; 6HR MAX TEMP:  63;

$$

 *****  OTHER OBSERVATIONS NORTHEAST NORTH DAKOTA  *****

CITY           SKY/WX    TMP DP  RH WIND       PRES   REMARKS
WALHALLA       NOT AVBL
LANGDON        MOCLDY    48  43  81 S13       29.95F
CAVALIER       FAIR      55  45  67 S9        29.96F
GRAFTON        FAIR      55  45  67 S14       30.00F
CANDO          NOT AVBL
FORT TOTTEN      N/A     57  37  47 S7        29.95S
ROLLA          LGT RAIN  43  43 100 W9        29.92F
RUGBY          NOT AVBL
 ***** THE ABOVE OBSERVATIONS ARE NON NWS ARE NOT QUALITY
        CONTROLLED AND MAY MIS-REPORT RAIN FOR SNOW...
$$

 *****  OTHER OBSERVATIONS SOUTHEAST NORTH DAKOTA *****

CITY           SKY/WX    TMP DP  RH WIND       PRES   REMARKS
COOPERSTOWN    FAIR      54  41  62 S10       30.00S
VALLEY CITY    FAIR      59  32  36 S14       30.02S
OAKES          NOT AVBL
GWINNER        CLEAR     55  36  47 MISG      30.03S
SHEYENNE NWR     N/A     56  31  39 S15       29.95S
BUFFALO        NOT AVBL
WYNDMERE       NOT AVBL
 ***** THE ABOVE OBSERVATIONS ARE NON NWS ARE NOT QUALITY
       CONTROLLED AND MAY MIS-REPORT RAIN FOR SNOW...
$$

  *****  WEATHER ACROSS NORTHERN MINNESOTA  *****

CITY           SKY/WX    TMP DP  RH WIND       PRES   REMARKS
FLAG ISLAND    FAIR      41  30  65 S12       30.04R
WARROAD        FAIR      57  37  47 SW8       30.04S
ROSEAU         FAIR      55  39  54 S9        30.03S
HALLOCK        FAIR      55  48  76 S9        29.99F
THF RVR FALLS  FAIR      55  39  54 S12       30.05S
6HR MIN TEMP:  52; 6HR MAX TEMP:  60;

HALSTAD          N/A     54  43  65 S12         N/A
FOSSTON        FAIR      54  36  50 S9        30.06S
BAUDETTE       FAIR      55  30  38 S9        30.06F
6HR MIN TEMP:  51; 6HR MAX TEMP:  60;

WASKISH        FAIR      54  34  47 SE8       30.08F
CROOKSTON      FAIR      55  41  58 S14       30.04S
$$
  *****  WEATHER ACROSS CENTRAL AND WEST MINNESOTA  *****

CITY           SKY/WX    TMP DP  RH WIND       PRES   REMARKS
BEMIDJI        FAIR      51  33  49 SE8       30.09S
PARK RAPIDS    FAIR      53  28  38 S10       30.09F
6HR MIN TEMP:  47; 6HR MAX TEMP:  57;

WADENA         FAIR      50  34  53 SE13      30.11S
DETROIT LAKES  FAIR      54  32  43 S12       30.09S
MOORHEAD       FAIR      55  36  47 S14G23    30.07S
FERGUS FALLS   FAIR      52  34  50 S16       30.12S
ELBOW LAKE     FAIR      49  36  61 S16       30.11S
6HR MIN TEMP:  49; 6HR MAX TEMP:  57;

MORRIS MN      FAIR      48  37  66 S16       30.11S
STAPLES        FAIR      48  30  49 SE7       30.12S
WHEATON        FAIR      52  36  54 SE15G23   30.11S
$$
  *****  WEATHER ELSEWHERE ACROSS MINNESOTA  *****

CITY           SKY/WX    TMP DP  RH WIND       PRES   REMARKS
DULUTH         FAIR      34  28  79 E9        30.20F
6HR MIN TEMP:  34; 6HR MAX TEMP:  39;

INTRNTL FALLS  FAIR      50  30  46 SE10      30.12S
6HR MIN TEMP:  47; 6HR MAX TEMP:  54;

ELY            FAIR      37  25  60 SE9       30.20F
CLOQUET        FAIR      34  28  80 E9G17     30.20S
BRAINERD       FAIR      48  31  51 SE6       30.14F
6HR MIN TEMP:  44; 6HR MAX TEMP:  50;

HIBBING        FAIR      39  28  64 SE9       30.17F
6HR MIN TEMP:  39; 6HR MAX TEMP:  45;

ALEXANDRIA     FAIR      48  35  60 S13       30.13R
6HR MIN TEMP:  48; 6HR MAX TEMP:  55;

SAINT CLOUD    MOCLDY    48  36  63 S6        30.15S
6HR MIN TEMP:  48; 6HR MAX TEMP:  52;

MINNEAPOLIS    LGT RAIN  45  38  76 S9        30.16F
6HR MIN TEMP:  45; 6HR MAX TEMP:  50; 6HR PCP: TRACE;

$$

  *****  WEATHER ACROSS SOUTH DAKOTA  *****

CITY           SKY/WX    TMP DP  RH WIND       PRES   REMARKS
SIOUX FALLS    LGT RAIN  41  40  96 E17G26    30.04S
6HR MIN TEMP:  41; 6HR MAX TEMP:  51; 6HR PCP:  0.03;

BROOKINGS      MOCLDY    43  37  79 E13G21    30.06S
WATERTOWN      MOCLDY    45  35  68 SE9G21    30.08R
6HR MIN TEMP:  45; 6HR MAX TEMP:  56;

HURON          FAIR      50  36  58 E12       30.05R
6HR MIN TEMP:  50; 6HR MAX TEMP:  57;

SISSETON         N/A     52  37  56 S17       30.07R
ABERDEEN       FAIR      55  32  41 SE14      30.03S
6HR MIN TEMP:  55; 6HR MAX TEMP:  62;

MITCHELL       CLOUDY    47  37  68 E16       30.06R
PIERRE         FAIR      53  34  48 SE20      29.99R
6HR MIN TEMP:  53; 6HR MAX TEMP:  62;

MOBRIDGE       FAIR      61  27  27 S7        29.94F
RAPID CITY     FAIR      56  37  49 E5        29.95F
6HR MIN TEMP:  50; 6HR MAX TEMP:  57;

$$

  *****  SOME WEATHER IN NEARBY STATES *****

CITY           SKY/WX    TMP DP  RH WIND       PRES   REMARKS
GLASGOW MT     FAIR      58  26  29 W8        29.83F
6HR MIN TEMP:  56; 6HR MAX TEMP:  61;

GREAT FALLS MT FAIR      56  34  43 SW29G39   29.79F
6HR MIN TEMP:  43; 6HR MAX TEMP:  58; 6HR PCP: TRACE;

CHEYENNE WY    FAIR      52  23  32 NW20G28   29.97F
6HR MIN TEMP:  45; 6HR MAX TEMP:  53;

SCOTTSBLUFF NE FAIR      57  37  47 NE13      29.94S
6HR MIN TEMP:  49; 6HR MAX TEMP:  60;

OMAHA NE       LGT RAIN  43  38  82 NE25G36   29.83F FOG
6HR MIN TEMP:  43; 6HR MAX TEMP:  44; 6HR PCP:  0.57;

DES MOINES IA  LGT RAIN  45  42  89 E16G29    29.88F FOG
6HR MIN TEMP:  44; 6HR MAX TEMP:  46; 6HR PCP:  0.44;

DAVENPORT IA   CLOUDY    44  40  85 E21G28    29.99R
6HR MIN TEMP:  44; 6HR MAX TEMP:  48; 6HR PCP:  0.22;

CHICAGO IL     LGT RAIN  46  36  68 NE10G21   30.11R
6HR MIN TEMP:  44; 6HR MAX TEMP:  49; 6HR PCP:  0.01;

EAU CLAIRE WI  CLOUDY    47  35  63 S10       30.18R
6HR MIN TEMP:  47; 6HR MAX TEMP:  50;

LA CROSSE WI   LGT RAIN  45  39  79 E9        30.16R
6HR MIN TEMP:  45; 6HR MAX TEMP:  48; 6HR PCP: TRACE;

$$

  *****  SOME NATIONAL WEATHER *****

CITY           SKY/WX    TMP DP  RH WIND       PRES   REMARKS
LA GUARDIA NY  FAIR      53  25  33 N13       30.14R



USA.gov is the U.S. government's official web portal to all federal, state and local government web resources and services.